{"data":{"norad_id":50804,"intl_designator":"2022-001B","name":"STARLINK-3323","alt_names":[],"object_type":"PAYLOAD","status":"ACTIVE","operator":null,"country":"US","launch_date":"2022-01-06","launch_site_code":"AFETR","launch_vehicle":null,"mission":null,"orbit_class":"UNKNOWN","rcs_meters":null,"size_class":null,"mass_kg":null,"dimensions":null,"purposes":["comms"],"wikipedia_slug":null,"has_3d_model":false,"image_url":null,"decayed_at":null,"tle_current":{"epoch":"2026-05-24T12:48:41.100192Z","epoch_age_seconds":118601,"freshness":"FRESH","line1":"1 50804U 22001B   26144.53380903 -.00000146  00000+0  89329-5 0  9997","line2":"2 50804  53.2136 178.6449 0000823  81.4950 278.6136 15.08837539241995","mean_motion":15.08837539,"eccentricity":8.23e-5,"inclination_deg":53.2136,"raan_deg":178.6449,"arg_perigee_deg":81.495,"mean_anomaly_deg":278.6136,"bstar":8.9329e-6,"rev_number":24199,"period_min":95.437710341855,"perigee_km":539.18156909169,"apogee_km":540.32025344189,"semimajor_km":6917.8879112668,"source":"CELESTRAK","updated_at":"2026-05-25T13:38:16.874333Z"}}}